weather.gov     
National Weather Service

Terminal Aerodrome Forecast
NWS Homepage
This page is being discontinued on March 12, 2014.
The same data is available at this site. Please update your bookmarks.
Thank you, and we apologize for the inconvenience.
Please send an email to SR-SRH.Webmaster@noaa.gov with any concerns.


Current Version
Previous Version:    01  02  03  04  05  06  07  08  09  10  11  12  13  14  15  16  17  18  19  20  21  22  23  24  25  26  27  28  29  30  
   31  32  33  
[Printable]
814
FTUS43 KARX 290113 AAA
TAFRST
TAF AMD
KRST 290113Z 2901/2924 13008KT 5SM -RA BR OVC005
     FM290600 15008KT 5SM BR VCSH OVC005
     FM291400 18010KT P6SM OVC007
     FM291700 20010KT P6SM BKN015
      TEMPO 2920/2924 3SM TSRA BKN020CB=


814
FTUS43 KARX 290113 AAA
TAFRST
TAF AMD
KRST 290113Z 2901/2924 13008KT 5SM -RA BR OVC005
     FM290600 15008KT 5SM BR VCSH OVC005
     FM291400 18010KT P6SM OVC007
     FM291700 20010KT P6SM BKN015
      TEMPO 2920/2924 3SM TSRA BKN020CB=




U.S. Dept. of Commerce
NOAA National Weather Service
1325 East West Highway
Silver Spring, MD 20910
E-mail: w-nws.webmaster@noaa.gov
Page last modified: May 16, 2007
NATIONAL WEATHER SERVICE: for Safety, for Work, for Fun - FOR LIFE